Yankton, SD

1:15 PM CST on December 08, 2019 (GMT -0600)
Gurney Municipal

Weather History for KYKN - October, 2019

Change the Weather History Date:

Friday, October 4, 2019

  Actual Average Record
Temperature  
Mean Temperature 45 °F -  
Max Temperature 55 °F 68 °F 89 °F (2011)
Min Temperature 36 °F 41 °F 27 °F (1950)
Degree Days  
Heating Degree Days 20    
Moisture  
Dew Point 41 °F    
Average Humidity 85    
Maximum Humidity 100    
Minimum Humidity 66    
Precipitation  
Precipitation 0.07 in - - ()
Sea Level Pressure  
Sea Level Pressure 30.30 in    
Wind  
Wind Speed 9 mph (ESE)    
Max Wind Speed 16 mph    
Max Gust Speed 25 mph    
Visibility 10 miles    
Events Rain    
Averages and records for this station are not official NWS values.
T = Trace of Precipitation, MM = Missing Value Source: NWS Daily Summary

Daily Weather History Graph

Daily Weather History Graph

Search for Another Location

Airport or City:

Astronomy

Oct. 04, 2019 Rise Set
Actual Time 7:30 AM CDT 7:05 PM CDT
Civil Twilight 7:01 AM CDT 7:34 PM CDT
Nautical Twilight 6:28 AM CDT 8:06 PM CDT
Astronomical Twilight 5:55 AM CDT 8:39 PM CDT
Moon 2:11 PM CDT (10/4) 11:27 PM CDT (10/4)
Length of Visible Light 12h 32m
Length of Day
11h 35m
Waxing Crescent, 40% of the Moon is Illuminated
Oct 4
Waxing Crescent
Oct 5
First Quarter
Oct 13
Full
Oct 21
Last Quarter
Oct 27
New

Hourly Weather History & Observations

Time (CDT) Temp. Windchill Dew Point Humidity Pressure Visibility Wind Dir Wind Speed Gust Speed Precip Events Conditions
12:56 AM 44.1 °F 41.5 °F 41.0 °F 89% 30.45 in 10.0 mi ENE 4.6 mph - 0.00 in   Overcast
1:37 AM 41.0 °F 36.4 °F 39.2 °F 93% 30.38 in 10.0 mi ENE 6.9 mph - N/A   Scattered Clouds
1:56 AM 41.0 °F 37.1 °F 39.0 °F 93% 30.45 in 10.0 mi ENE 5.8 mph - N/A   Clear
2:56 AM 39.0 °F 33.4 °F 37.9 °F 96% 30.45 in 10.0 mi East 8.1 mph - N/A   Clear
3:56 AM 37.9 °F 35.5 °F 37.0 °F 97% 30.44 in 10.0 mi East 3.5 mph - N/A   Clear
4:56 AM 37.0 °F 34.5 °F 36.0 °F 96% 30.45 in 10.0 mi ESE 3.5 mph - N/A   Clear
5:56 AM 37.0 °F 33.3 °F 36.0 °F 96% 30.45 in 10.0 mi East 4.6 mph - N/A   Clear
6:56 AM 36.0 °F 31.1 °F 35.1 °F 97% 30.45 in 10.0 mi East 5.8 mph - N/A   Clear
7:56 AM 36.0 °F 30.3 °F 36.0 °F 100% 30.44 in 10.0 mi East 6.9 mph - N/A   Clear
8:56 AM 39.9 °F 33.9 °F 37.9 °F 93% 30.43 in 10.0 mi ESE 9.2 mph - N/A   Partly Cloudy
9:37 AM 42.8 °F 38.0 °F 39.2 °F 87% 30.36 in 10.0 mi East 8.1 mph - N/A   Mostly Cloudy
9:56 AM 45.0 °F 38.2 °F 41.0 °F 86% 30.42 in 10.0 mi ESE 15.0 mph - N/A   Overcast
10:30 AM 44.6 °F 37.4 °F 39.2 °F 81% 30.36 in 10.0 mi ESE 16.1 mph - N/A   Overcast
10:56 AM 45.0 °F 38.9 °F 39.9 °F 82% 30.42 in 10.0 mi SE 12.7 mph 19.6 mph N/A   Overcast
11:17 AM 46.4 °F 40.4 °F 41.0 °F 81% 30.34 in 10.0 mi ESE 13.8 mph - N/A   Overcast
11:56 AM 46.9 °F - 41.0 °F 80% 30.38 in 10.0 mi ESE 15.0 mph - N/A   Overcast
12:56 PM 48.9 °F - 42.1 °F 77% 30.34 in 10.0 mi ESE 13.8 mph 19.6 mph N/A   Overcast
1:56 PM 53.1 °F - 44.1 °F 71% 30.29 in 10.0 mi ESE 16.1 mph - N/A   Overcast
2:56 PM 52.0 °F - 43.0 °F 71% 30.25 in 10.0 mi ESE 13.8 mph 20.7 mph N/A   Overcast
3:56 PM 54.0 °F - 43.0 °F 66% 30.22 in 10.0 mi SE 13.8 mph 20.7 mph N/A   Overcast
4:56 PM 53.1 °F - 44.1 °F 71% 30.19 in 10.0 mi ESE 12.7 mph - 0.00 in   Overcast
5:56 PM 51.1 °F - 45.0 °F 80% 30.16 in 10.0 mi ESE 13.8 mph 21.9 mph 0.00 in Rain Light Rain
6:56 PM 50.0 °F - 46.0 °F 86% 30.14 in 10.0 mi ESE 10.4 mph - 0.01 in   Overcast
7:56 PM 51.1 °F - 46.9 °F 86% 30.12 in 10.0 mi ESE 10.4 mph - N/A   Overcast
8:56 PM 52.0 °F - 46.0 °F 80% 30.10 in 10.0 mi SE 16.1 mph 21.9 mph N/A   Overcast
9:14 PM 51.8 °F - 46.4 °F 82% 30.02 in 10.0 mi SE 13.8 mph - N/A   Overcast
9:56 PM 52.0 °F - 46.0 °F 80% 30.07 in 10.0 mi SE 16.1 mph - 0.00 in Rain Light Rain
10:56 PM 51.1 °F - 46.9 °F 86% 30.03 in 10.0 mi SE 13.8 mph - 0.06 in   Overcast
11:56 PM 51.1 °F - 45.0 °F 80% 30.01 in 10.0 mi SE 16.1 mph 25.3 mph N/A   Overcast